Regional Weather Roundup
Issued by NWS

Home | Current Version | Previous Version | Graphics & Text | Print | Product List | Glossary On
Versions: 1 2 3 4 5 6 7 8 9 10 11 12 13 14 15 16 17 18 19 20 21 22 23 24 25 26 27 28 29 30 31 32 33 34 35 36 37 38 39 40 41 42 43 44 45 46 47 48 49 50
000
ASUS45 KSLC 301110
RWRUT

UTAH REGIONAL WEATHER ROUNDUP
NATIONAL WEATHER SERVICE SALT LAKE CITY UT
500 AM MDT WED JUL 30 2014

UTZ001>011-023>025-301200-

NORTHERN UTAH

CITY           SKY/WX    TMP DP  RH WIND       PRES   REMARKS
HILL AFB       CLOUDY    65  58  77 SE9       30.20S
LOGAN          LGT RAIN  62  59  90 SW6       30.20S
OGDEN          CLOUDY    66  59  78 S8        30.17S
PROVO AIRPORT  MOCLDY    64  57  77 SE10      30.20F
SALT LAKE CITY MOCLDY    65  64  97 CALM      30.16S
VERNAL         CLOUDY    62  58  86 CALM      30.24R
WENDOVER       CLEAR     66  52  59 W5        30.19R
HEBER CITY     DRIZZLE   59  57  94 CALM      30.25S
WEST JORDAN    PTCLDY    66  66 100 CALM      30.20S

$$

UTZ012>022-026-027-301200-

SOUTHERN UTAH

CITY           SKY/WX    TMP DP  RH WIND       PRES   REMARKS
BRYCE CANYON   CLEAR     50  49  96 W6        30.37S
CEDAR CITY     CLEAR     57  55  93 NE5       30.24S
MILFORD        PTCLDY    59  56  89 N5        30.21S
MOAB/CYNLANDS  CLEAR     61  59  93 CALM      30.16S
PRICE          CLOUDY    62  56  80 CALM      30.25S
ST GEORGE      PTSUNNY   77  52  41 E8        30.03R
KANAB            N/A     66  54  63 N5        30.20S

$$

REGIONAL REPORTS     COLORADO/ARIZONA

CITY           SKY/WX    TMP DP  RH WIND       PRES   REMARKS
CRAIG, CO      CLOUDY    55  32  41 W5        30.28S
GRAND JUNCTION PTCLDY    59  57  93 CALM      30.20R
RIFLE          PTCLDY    57  56  96 CALM      30.25S
MONTROSE       CLEAR     57  54  89 SE7       30.27R
CORTEZ         MOCLDY    59  55  87 NE5       30.23S
PAGE, AZ       PTCLDY    77  52  41 NW6       30.11S
GRAND CANYON   PTCLDY    53  48  83 CALM      30.29F
KINGMAN        CLEAR     73  51  46 S7        30.04F
FLAGSTAFF      CLEAR     55  47  74 CALM      30.33S

$$

REGIONAL REPORTS    NEVADA/IDAHO/WYOMING

CITY           SKY/WX    TMP DP  RH WIND       PRES   REMARKS
LAS VEGAS, NV  PTCLDY    86  56  35 S6        29.92R
ELY            CLEAR     48  48 100 S6        30.32S
ELKO           PTCLDY    62  49  62 E6        30.25S
POCATELLO, ID  CLEAR     55  53  93 NW7       30.22R
BURLEY         PTCLDY    58  53  84 S5        30.20R
EVANSTON, WY   CLOUDY    55  53  93 NE8       30.35R
ROCK SPRINGS   CLOUDY    56  52  86 NE10      30.35R

$$


USA.gov is the U.S. government's official web portal to all federal, state and local government web resources and services.